Location: Newark
(15.4608°S, 41.1635°W)
Time: 10:21:35
(UTC+00:00)

Vanguard 3 - Pass Details

Date: 02 August 2021
Orbit: 510 x 3260 km, 33.3° (Epoch: 22 September)

Event Time Altitude Azimuth Distance (km) Brightness Sun altitude
Rises 05:14:26 0° 311° (NW) 6,464 - -55.6°
Reaches altitude 10° 05:19:23 10° 313° (NW) 5,064 - -54.4°
Maximum altitude 05:32:31 65° 31° (NNE) 1,681 - -51.3°
Exits shadow 05:38:53 15° 110° (ESE) 2,639 10.1 -49.8°
Drops below altitude 10° 05:39:44 10° 112° (ESE) 2,903 10.4 -49.6°
Sets 05:41:51 0° 115° (ESE) 3,611 11.0 -49.1°
